Location: Killam
(52.7910°N, 111.8608°W)
Time: 12:59:33
(UTC+00:00)

METEOR M2 - Pass Details

Date: 19 March 2026
Orbit: 817 x 824 km, 98.5° (Epoch: 14 April)

Event Time Altitude Azimuth Distance (km) Brightness Sun altitude
Rises 10:02:20 0° 31° (NNE) 3,374 ? -29.4°
Reaches altitude 10° 10:07:04 10° 68° (ENE) 2,432 ? -28.9°
Maximum altitude 10:08:15 11° 81° (E) 2,382 ? -28.8°
Drops below altitude 10° 10:09:26 10° 94° (E) 2,428 ? -28.6°
Sets 10:14:07 0° 132° (SE) 3,352 ? -28.1°
